Weather History for Eau Claire, WI

Change the Weather History Date:

Wednesday, December 1, 2010

  Actual Average Record
Temperature  
Mean Temperature 17 °F 24 °F  
Max Temperature 21 °F 33 °F 63 °F (1998)
Min Temperature 12 °F 16 °F -18 °F (1893)
Degree Days  
Heating Degree Days 48 41  
Month to date heating degree days 48 41  
Since 1 July heating degree days 1652 1787  
Cooling Degree Days 0 0  
Month to date cooling degree days 0 0  
Year to date cooling degree days 685 579  
Moisture  
Dew Point 12 °F    
Average Humidity 78    
Maximum Humidity 84    
Minimum Humidity 71    
Precipitation  
Precipitation T in 0.04 in 1.00 in (1945)
Month to date precipitation T 0.04  
Year to date precipitation 34.53 30.02  
Snow  
Snow T in 0.30 in 6.40 in (1985)
Month to date snowfall T 0.3  
Since 1 July snowfall 2.3 6.6  
Snow Depth T in    
Sea Level Pressure  
Sea Level Pressure 29.92 in    
Wind  
Wind Speed 10 mph (West)    
Max Wind Speed 18 mph    
Max Gust Speed 24 mph    
Visibility 9 miles    
Events Snow    
T = Trace of Precipitation, MM = Missing Value Source: NWS Daily Summary

Daily Weather History Graph

Daily Weather History Graph

Search for Another Location

Airport:

Trip Planner

Search our weather history database for the weather conditions in past years. The results will help you decide how hot, cold, wet, or windy it might be!

Date:

Astronomy

Dec. 01, 2010 Rise Set
Actual Time 7:23 AM CST 4:26 PM CST
Civil Twilight 6:50 AM CST 4:59 PM CST
Nautical Twilight 6:13 AM CST 5:35 PM CST
Astronomical Twilight 5:38 AM CST 6:11 PM CST
Moon 2:41 AM CST (12/1) 1:35 PM CST (12/1)
Length of Visible Light 10h 08m
Length of Day
9h 02m
Waning Crescent, 19% of the Moon is Illuminated
Dec 1
Waning Crescent
Dec 5
New
Dec 13
First Quarter
Dec 21
Full
Dec 27
Last Quarter

Hourly Weather History & Observations

Time (CST) Temp. Windchill Dew Point Humidity Pressure Visibility Wind Dir Wind Speed Gust Speed Precip Events Conditions
12:56 AM 19.0 °F 5.6 °F 12.0 °F 74% 29.79 in 10.0 mi West 13.8 mph - 0.00 in   Overcast
1:56 AM 18.0 °F 4.8 °F 12.0 °F 78% 29.81 in 10.0 mi West 12.7 mph - N/A   Overcast
2:56 AM 18.0 °F 6.9 °F 10.9 °F 74% 29.83 in 10.0 mi West 9.2 mph 20.7 mph 0.00 in   Overcast
3:13 AM 17.6 °F 5.0 °F 10.4 °F 73% 29.78 in 10.0 mi WNW 11.5 mph - N/A   Overcast
3:56 AM 18.0 °F 4.8 °F 12.0 °F 78% 29.83 in 10.0 mi West 12.7 mph - N/A   Overcast
4:56 AM 18.0 °F 3.1 °F 10.9 °F 74% 29.85 in 10.0 mi WNW 16.1 mph 21.9 mph N/A   Overcast
5:56 AM 18.0 °F 4.2 °F 12.0 °F 78% 29.86 in 8.0 mi West 13.8 mph - 0.00 in Snow Light Snow
6:29 AM 17.6 °F 5.7 °F 12.2 °F 79% 29.82 in 6.0 mi West 10.4 mph - 0.00 in Snow Light Snow
6:40 AM 17.6 °F 6.4 °F 12.2 °F 79% 29.83 in 7.0 mi West 9.2 mph 17.3 mph 0.00 in Snow Light Snow
6:56 AM 17.1 °F 5.0 °F 12.0 °F 81% 29.89 in 7.0 mi WNW 10.4 mph - 0.00 in Snow Light Snow
7:56 AM 17.1 °F 5.8 °F 10.9 °F 77% 29.90 in 10.0 mi West 9.2 mph - 0.00 in   Overcast
8:56 AM 17.6 °F 5.7 °F 12.2 °F 79% 29.86 in 10.0 mi WNW 10.4 mph - N/A   Overcast
9:56 AM 19.0 °F 8.2 °F 12.9 °F 77% 29.93 in 7.0 mi West 9.2 mph - 0.00 in Snow Light Snow
10:56 AM 19.9 °F 7.3 °F 12.9 °F 74% 29.93 in 5.0 mi WNW 12.7 mph 18.4 mph 0.00 in Snow Light Snow
11:56 AM 21.0 °F 9.9 °F 14.0 °F 74% 29.93 in 6.0 mi West 10.4 mph - 0.00 in Snow Light Snow
12:56 PM 21.0 °F 11.4 °F 14.0 °F 74% 29.94 in 8.0 mi WNW 8.1 mph - 0.00 in Snow Light Snow
1:56 PM 19.9 °F 5.7 °F 12.9 °F 74% 29.96 in 9.0 mi WNW 16.1 mph - 0.00 in Snow Light Snow
2:56 PM 19.9 °F 7.9 °F 12.9 °F 74% 29.97 in 10.0 mi West 11.5 mph - 0.00 in Snow Light Snow
3:56 PM 19.0 °F 8.2 °F 12.0 °F 74% 29.99 in 7.0 mi WNW 9.2 mph - 0.00 in Snow Light Snow
4:56 PM 18.0 °F 4.8 °F 12.0 °F 78% 30.01 in 10.0 mi West 12.7 mph 19.6 mph 0.00 in Snow Light Snow
5:56 PM 17.1 °F 3.0 °F 10.9 °F 77% 30.03 in 10.0 mi West 13.8 mph 20.7 mph 0.00 in   Overcast
6:56 PM 18.0 °F 6.9 °F 12.0 °F 78% 30.03 in 10.0 mi West 9.2 mph - 0.00 in   Overcast
7:56 PM 18.0 °F 8.7 °F 12.0 °F 78% 30.04 in 10.0 mi West 6.9 mph - N/A   Overcast
8:56 PM 17.6 °F 6.4 °F 10.4 °F 73% 29.98 in 10.0 mi West 9.2 mph - N/A   Overcast
9:37 PM 15.8 °F 7.2 °F 10.4 °F 79% 29.98 in 10.0 mi West 5.8 mph - N/A   Scattered Clouds
9:56 PM 14.0 °F 6.5 °F 9.0 °F 80% 30.03 in 10.0 mi WSW 4.6 mph - N/A   Clear
10:56 PM 12.9 °F 6.9 °F 9.0 °F 84% 30.04 in 10.0 mi SW 3.5 mph - N/A   Clear
11:56 PM 12.0 °F 2.7 °F 8.1 °F 84% 30.05 in 10.0 mi WSW 5.8 mph - N/A   Clear